www.pogodaiklimat.ru

Погода и климат >> Архив погоды >> Парагвай >> Сан-Педро


ПОГОДА в Сан-Педро

  • Прогноз погоды в Сан-Педро
  • Монитор погоды в Сан-Педро

АРХИВ ПОГОДЫ в Сан-Педро

Время (UTC), дата Ветер
(напр.,м/с)
 
Видим.   Явления Облачность Т
(С)
Тd
(С)
f
(%)
Тe
(С)
Тes
(С)
Комфортность P
(гПа)
Po
(гПа)
Тmin
(С)
Tmax
(С)
R
(мм)
R24
(мм)
S
(см)
06 12.08 штиль 0 10 км дымка ясно +17.0 +15.3 90 +17 +17 1008.4 998.8
09 12.08 штиль 0 10 км дымка ясно +16.6 +15.4 93 +16 +16 1008.8 999.2
12 12.08 штиль 0 20 км ясно +18.0 +14.5 80 +18 +22 1010.7 1001.1 +11.0
15 12.08 В 3 20 км ясно +24.0 +13.8 53 +26 +37 жарко 1011.4 1002.0
18 12.08 С 3 20 км 6/6 1000 м
[Sc]
+30.6 +12.7 33 +31 +34 жарко 1009.6 1000.4
21 12.08 штиль 0 20 км 8/0 2000 м
[Ac und]
+31.2 +12.5 32 +32 +32 жарко 1009.4 1000.2
00 13.08 В 4 20 км 10/0 2000 м
[Ac und]
+26.0 +18.1 62 +31 +31 очень
душно
1013.5 1004.2 +31.2
03 13.08 В 4 20 км 10/10 800 м
[Sc]
+18.6 +15.9 84 +19 +19 1016.6 1007.0
15 13.08 Ю 6 20 км 10/10 800 м
[Sc]
+16.2 +12.2 77 +15 +15 1025.2 1015.5
18 13.08 Ю 6 20 км 8/0 2000 м
[Ac und]
+18.6 +9.9 57 +19 +20 1023.7 1014.1
21 13.08 Ю 4 20 км 8/0
[Cs]
+18.2 +10.3 60 +18 +18 1023.9 1014.3
00 14.08 Ю 3 20 км ясно +14.8 +13.0 89 +14 +14 1025.8 1016.1 +18.6
03 14.08 Ю 4 20 км ясно +14.0 +10.5 79 +13 +13 1026.9 1017.1
06 14.08 Ю 4 20 км ясно +12.6 +9.6 82 +11 +11 1026.1 1016.3
12 14.08 Ю 3 20 км ясно +6.6 +3.0 78 +4 +6 1027.0 1017.0 +6.6
15 14.08 Ю 3 20 км ясно +12.8 +5.0 59 +12 +22 1024.0 1014.2
18 14.08 Ю 3 20 км ясно +16.6 +2.1 38 +16 +24 1022.7 1013.0
00 15.08 штиль 0 20 км ясно +14.2 +11.6 84 +14 +14 1023.1 1013.3 +16.6
03 15.08 штиль 0 10 км дымка ясно +10.6 +9.0 90 +10 +10 1020.2 1010.3
09 15.08 штиль 0 10 км дымка ясно +6.6 +5.2 91 +6 +6 1020.3 1010.3
12 15.08 В 3 20 км ясно +12.0 +9.6 85 +10 +13 1021.0 1011.2 +6.4
15 15.08 В 4 20 км ясно +14.6 +7.3 62 +13 +22 1020.4 1010.6
18 15.08 В 6 20 км ясно +26.2 +11.0 39 +27 +31 жарко 1016.8 1007.4
21 15.08 В 2 20 км 8/0
[Cs]
+26.0 +7.3 30 +26 +26 жарко 1013.9 1004.6
00 16.08 штиль 0 20 км 8/0
[Cs]
+22.6 +18.6 78 +28 +28 душно 1014.3 1004.9 +26.4
03 16.08 В 4 20 км 9/0
[Cs]
+18.0 +16.0 88 +18 +18 1014.4 1004.8
06 16.08 В 3 20 км 8/0
[Cs]
+17.0 +15.3 90 +17 +17 1012.5 1002.9
12 16.08 В 4 20 км 8/0
[Cs]
+17.2 +14.8 86 +17 +19 1014.3 1004.7 +12.0
15 16.08 СВ 6 20 км ясно +29.6 +11.4 32 +30 +35 жарко 1013.1 1003.9
18 16.08 С 7 20 км ясно +33.0 +10.6 25 +32 +35 жарко 1009.7 1000.6
21 16.08 С 2 20 км 4/4 1000 м
[Sc]
+32.0 +11.7 29 +32 +32 жарко 1008.7 999.6
03 17.08 С 3 20 км ясно +25.2 +19.3 70 +30 +30 душно 1011.4 1000.0
06 17.08 В 3 20 км ясно +24.0 +20.7 82 +30 +30 очень
душно
1007.5 998.2
12 17.08 С 4 20 км 10/0
[Cs]
+24.4 +19.1 72 +29 +31 душно 1008.5 999.2 +17.2
18 17.08 С 8 20 км 10/0
[Cs]
+33.6 +10.0 24 +33 +34 жарко 1003.0 994.0
21 17.08 С 4 20 км 10/0
[Cs]
+33.4 +10.4 24 +33 +33 жарко 1002.2 993.2
00 18.08 штиль 0 20 км ясно +28.4 +16.5 48 +32 +32 душно 1004.2 995.0 +33.6
06 18.08 С 4 20 км 9/0 2000 м
[Ac und]
+26.0 +19.8 69 +32 +32 очень
душно
1005.3 996.0
12 18.08 штиль 0 20 км 10/0
[Cs]
+26.6 +19.5 65 +32 +36 очень
душно
1007.1 997.9 +24.4
15 18.08 С 4 20 км 10/0 2000 м
[Ac und]
+28.2 +18.7 56 +33 +36 очень
душно
1007.3 998.1
18 18.08 С 4 15 км дым 10/0 2000 м
[Ac und]
+32.6 +15.6 36 +35 +37 душно 1006.1 997.1
21 18.08 Ю 6 15 км дым 10/0 2000 м
[Ac und]
+30.8 +16.6 42 +34 +34 очень
душно
1006.6 997.5
00 19.08 Ю 4 20 км 9/0 2000 м
[Ac und]
+24.6 +20.6 78 +31 +31 очень
душно
1010.1 1000.8 +32.6

 

Местоположение метеостанции Сан-Педро (Парагвай): широта -24.06 долгота -57.08 высота над уровнем моря 80 м.

В архиве по умолчанию представлена погода в Сан-Педро за последнюю неделю. Архивные данные за месяц целиком и за предыдущие месяцы, начиная с января 2011 года, Вы можете получить, выбрав интересующий диапазон дат из раскрывающегося списка и нажав кнопку "Ввод!".


*Определитесь, кто Вы:
робот инопланетянин человек

Внимание! Время в таблицах - всемирное. Для получения местного времени необходимо прибавить поправку, которая равна -4 ч.

Смотрите также архив погоды в соседних городах и на ближайших метеорологических станциях:

Погода в Консепсьоне (Парагвай) (76 км)
Погода в Сан Эстанислао (Парагвай) (93 км)
Погода в Асунсьоне (Парагвай) (139 км)
Погода в Коронель-Овьедо (Парагвай) (171 км)
Погода в Парагуари (Парагвай) (175 км)
Погода в Грал Бругуез (Парагвай) (194 км)
Погода в Вильяррике (Парагвай) (199 км)
Погода в Посо Колорадо (Парагвай) (200 км)
Погода в Сети-Кедасе (Мату-Гросу-ду-Сул, Бразилия) (210 км)
Погода в Пуэрто-Касадо (Парагвай) (213 км)

Пояснения к столбцам:

Ветер - указаны скорость ветра в м/с - средняя за 10 мин, порывы в срок и между сроками (в фигурных скобках) и направление, откуда дует ветер: С - северный, СВ - северо-восточный, В - восточный, ЮВ - юго-восточный, Ю - южный, ЮЗ - юго-западный, З - западный, СЗ - северо-западный.
Видимость - горизонтальная дальность видимости в метрах или километрах. При видимости от 1 до 10 км при отсутствии осадков обычно наблюдается дымка, при ухудшении видимости до 1 км и менее - туман. В сухую погоду видимость может ухудшаться дымом, пылью или мглою.
Явления - указаны атмосферные явления, наблюдавшиеся в срок или в последний час перед сроком; фигурными скобками обозначены явления, наблюдавшиеся между сроками (за 1-3 часа до срока); квадратными скобками обозначены град или гололедные отложения с указанием их диаметра в мм.
Облачность - указаны через наклонную черту общая и нижняя облачность в баллах и высота нижней границы облаков в метрах; квадратными скобками обозначены формы облаков: Ci - перистые, Cs - перисто-слоистые, Cc - перисто-кучевые, Ac - высококучевые, As - высокослоистые, Sc - слоисто-кучевые, Ns - слоисто-дождевые, Cu - кучевые, Cb - кучево-дождевые. Подробнее классификацию облаков см. в Атласе облаков (PDF).
T - Температура воздуха - температура, измеренная на высоте 2 м над землей.
Td - Температура точки росы - температура, при понижении до которой содержащийся в воздухе водяной пар достигнет насыщения.
f - Относительная влажность воздуха - влажноcть воздуха, измеренная на высоте 2 м над землей.
Te - Эффективная температура - температура, которую ощущает одетый по сезону человек в тени. Характеристика душности погоды. При расчете учитывается влияние влажности воздуха и скорости ветра на теплоощущения человека.
Tes - Эффективная температура на солнце - температура, которую ощущает человек, с поправкой на солнечный нагрев. Характеристика знойности погоды. Зависит от высоты солнца над горизонтом, облачности и скорости ветра. Ночью, в пасмурную погоду, а также при ветре 12 м/с и более поправка равна нулю.
P - Атмосферное давление - приведенное к уровню моря атмосферное давление.
Po - Атмосферное давление - измеренное на уровне метеостанции атмосферное давление.
Tmin - Минимальная температура - минимум температуры воздуха на высоте 2 м над землей.
Tmax - Максимальная температура - максимум температуры воздуха на высоте 2 м над землей.
R - Количество осадков - Количество выпавших осадков за период времени, мм. При наведении курсора мыши на число - период времени, за который выпало указанное количество осадков.
R24 - Количество осадков - Количество выпавших осадков за 24 часа, мм.
S - Снежный покров - Высота снежного покрова, см. При наведении курсора мыши на число - состояние снежного покрова и степень покрытия местности в баллах.